DW4238 Weather Reports


Display with metric or nautical units.
time (UTC)temp
F
wind
direction
speed
MPH
gust
MPH
rain 1hr
in
rain 24hr
in
rain mn
in
humidity
%
barometer
mb
20260902085545 81 242 1.0 3.0 0.00 0.00 0.00 81 1013.1
20260902084612 81 240 2.0 4.0 0.00 0.00 0.00 81 1013.0
20260902084124 81 238 2.0 5.0 0.00 0.00 0.00 81 1012.9
20260902083102 81 232 2.0 5.0 0.00 0.00 0.00 81 1012.9
20260902082611 81 240 3.0 5.0 0.00 0.00 0.00 81 1012.9
20260902082109 81 235 2.0 5.0 0.00 0.00 0.00 81 1013.0
20260902081540 81 236 2.0 4.0 0.00 0.00 0.00 81 1013.1
20260902081044 81 236 2.0 4.0 0.00 0.00 0.00 81 1013.0
20260902080636 81 236 1.0 4.0 0.00 0.00 0.00 81 1013.0
20260902075547 81 231 2.0 4.0 0.00 0.00 0.00 80 1013.2
20260902074614 81 230 3.0 4.0 0.00 0.00 0.00 79 1013.2
20260902074104 81 229 3.0 5.0 0.00 0.00 0.00 78 1013.2
20260902073103 81 226 2.0 4.0 0.00 0.00 0.00 77 1013.4
20260902072608 81 225 0.0 0.0 0.00 0.00 0.00 77 1013.4
20260902071630 81 207 0.0 0.0 0.00 0.00 0.00 78 1013.5
20260902071135 81 204 0.0 3.0 0.00 0.00 0.00 78 1013.6
20260902070626 81 202 1.0 3.0 0.00 0.00 0.00 78 1013.5
20260902070052 81 200 1.0 3.0 0.00 0.00 0.00 78 1013.6
20260902065540 81 197 0.0 3.0 0.00 0.00 0.00 79 1013.6
20260902065050 81 196 1.0 3.0 0.00 0.00 0.00 79 1013.7
20260902064542 80 145 0.0 1.0 0.00 0.00 0.00 79 1013.6
20260902064052 80 144 0.0 0.0 0.00 0.00 0.00 79 1013.6
20260902063603 80 143 0.0 2.0 0.00 0.00 0.00 79 1013.6
20260902063057 80 142 0.0 2.0 0.00 0.00 0.00 79 1013.6
20260902062547 81 142 1.0 1.0 0.00 0.00 0.00 79 1013.5
20260902062058 81 142 0.0 0.0 0.00 0.00 0.00 78 1013.5
20260902061552 80 142 0.0 0.0 0.00 0.00 0.00 79 1013.6
20260902061123 80 142 0.0 0.0 0.00 0.00 0.00 79 1013.7
20260902060538 80 142 0.0 0.0 0.00 0.00 0.00 79 1013.7
20260902055613 80 142 0.0 0.0 0.00 0.00 0.00 79 1013.6
20260902055102 80 142 0.0 0.0 0.00 0.00 0.00 79 1013.7
20260902054603 80 142 0.0 0.0 0.00 0.00 0.00 79 1013.7
20260902054046 80 142 0.0 0.0 0.00 0.00 0.00 79 1013.7
20260902053555 80 142 0.0 0.0 0.00 0.00 0.00 79 1013.6
20260902053047 80 142 0.0 0.0 0.00 0.00 0.00 79 1013.7
20260902052604 80 142 0.0 0.0 0.00 0.00 0.00 79 1013.7
20260902052047 80 142 0.0 0.0 0.00 0.00 0.00 79 1013.6
20260902051607 81 141 0.0 0.0 0.00 0.00 0.00 79 1013.6
20260902051056 81 141 0.0 2.0 0.00 0.00 0.00 79 1013.5
20260902050546 81 141 1.0 2.0 0.00 0.00 0.00 79 1013.5
20260902050040 81 141 0.0 2.0 0.00 0.00 0.00 79 1013.6
20260902045650 81 141 0.0 0.0 0.00 0.00 0.00 78 1013.7
20260902045114 81 141 0.0 1.0 0.00 0.00 0.00 78 1013.6
20260902044539 81 141 0.0 1.0 0.00 0.00 0.00 78 1013.7
20260902044050 81 141 0.0 1.0 0.00 0.00 0.00 78 1013.7
20260902043116 81 141 0.0 3.0 0.00 0.00 0.00 78 1013.7
20260902042627 81 141 1.0 3.0 0.00 0.00 0.00 77 1013.7
20260902042131 81 141 1.0 3.0 0.00 0.00 0.00 77 1013.7
20260902041558 81 141 1.0 3.0 0.00 0.00 0.00 77 1013.7
20260902041111 82 140 0.0 3.0 0.00 0.00 0.00 76 1013.8
20260902040134 82 140 1.0 2.0 0.00 0.00 0.00 76 1013.7
20260902035624 82 140 0.0 2.0 0.00 0.00 0.00 75 1013.7
20260902035129 82 140 0.0 2.0 0.00 0.00 0.00 75 1013.8
20260902034600 82 141 0.0 0.0 0.00 0.00 0.00 75 1013.7
20260902034105 82 141 0.0 3.0 0.00 0.00 0.00 75 1013.6
20260902033611 83 142 1.0 3.0 0.00 0.00 0.00 74 1013.6
20260902033043 83 142 1.0 3.0 0.00 0.00 0.00 74 1013.5
20260902032545 83 142 1.0 3.0 0.00 0.00 0.00 74 1013.4
20260902031608 83 141 2.0 4.0 0.00 0.00 0.00 74 1013.4
20260902031119 83 140 2.0 4.0 0.00 0.00 0.00 74 1013.3
20260902030631 83 139 2.0 4.0 0.00 0.00 0.00 74 1013.2
20260902030058 83 136 2.0 5.0 0.00 0.00 0.00 73 1013.3
20260902025610 84 136 2.0 5.0 0.00 0.00 0.00 73 1013.2
20260902024631 84 146 2.0 7.0 0.00 0.00 0.00 72 1013.1
20260902024143 84 144 2.0 5.0 0.00 0.00 0.00 72 1013.1
20260902023102 84 134 1.0 3.0 0.00 0.00 0.00 71 1013.1
20260902022606 84 137 1.0 3.0 0.00 0.00 0.00 71 1013.0
20260902021635 85 136 2.0 5.0 0.00 0.00 0.00 70 1012.9
20260902021118 85 134 2.0 5.0 0.00 0.00 0.00 70 1012.6
20260902020630 85 129 2.0 4.0 0.00 0.00 0.00 70 1012.7
20260902020054 85 129 1.0 4.0 0.00 0.00 0.00 69 1012.5
20260902015605 85 128 2.0 6.0 0.00 0.00 0.00 69 1012.5
20260902014601 86 124 2.0 5.0 0.00 0.00 0.00 68 1012.4
20260902014112 86 127 1.0 7.0 0.00 0.00 0.00 68 1012.3
20260902013612 86 130 3.0 7.0 0.00 0.00 0.00 68 1012.3
20260902013046 86 113 2.0 8.0 0.00 0.00 0.00 67 1012.4
20260902012556 87 71 2.0 9.0 0.00 0.00 0.00 67 1012.3
20260902011618 87 124 3.0 8.0 0.00 0.00 0.00 66 1012.3
20260902011051 87 125 4.0 9.0 0.00 0.00 0.00 66 1012.3
20260902010112 88 71 3.0 11.0 0.00 0.00 0.00 64 1012.0
20260902005617 89 117 2.0 9.0 0.00 0.00 0.00 64 1012.0
20260902004622 90 131 2.0 8.0 0.00 0.00 0.00 62 1012.0
20260902004106 90 80 3.0 9.0 0.00 0.00 0.00 61 1011.9
20260902003129 91 115 4.0 13.0 0.00 0.00 0.00 59 1011.9
20260902002540 93 105 5.0 12.0 0.00 0.00 0.00 57 1011.7
20260902001606 94 134 2.0 6.0 0.00 0.00 0.00 50 1011.5
20260902001115 94 117 1.0 11.0 0.00 0.00 0.00 50 1011.3
20260902000116 95 120 3.0 8.0 0.00 0.00 0.00 49 1011.5
20260901235626 95 109 3.0 8.0 0.00 0.00 0.00 49 1011.4
20260901234643 95 121 5.0 11.0 0.00 0.00 0.00 48 1011.4
20260901234112 95 84 4.0 11.0 0.00 0.00 0.00 48 1011.4
20260901233614 96 94 4.0 10.0 0.00 0.00 0.00 49 1011.4
20260901233044 96 130 4.0 9.0 0.00 0.00 0.00 49 1011.6
20260901232551 96 123 3.0 9.0 0.00 0.00 0.00 49 1011.6
20260901232039 96 86 6.0 9.0 0.00 0.00 0.00 48 1011.7
20260901231626 96 144 5.0 10.0 0.00 0.00 0.00 48 1011.6
20260901231135 96 125 4.0 13.0 0.00 0.00 0.00 48 1011.6
20260901230625 95 82 6.0 12.0 0.00 0.00 0.00 48 1011.7
20260901225548 95 84 7.0 11.0 0.00 0.00 0.00 46 1011.6
20260901224610 95 118 5.0 8.0 0.00 0.00 0.00 48 1011.8
20260901224122 95 57 3.0 10.0 0.00 0.00 0.00 48 1011.7
20260901223123 95 119 1.0 6.0 0.00 0.00 0.00 48 1011.8
20260901222539 95 75 3.0 6.0 0.00 0.00 0.00 48 1011.8
20260901222039 95 125 3.0 11.0 0.00 0.00 0.00 49 1011.9
20260901221040 95 80 4.0 11.0 0.00 0.00 0.00 49 1012.0
20260901215613 95 97 7.0 12.0 0.00 0.00 0.00 49 1012.1
20260901214615 95 49 5.0 12.0 0.00 0.00 0.00 48 1012.0
20260901214106 95 75 2.0 10.0 0.00 0.00 0.00 48 1012.0
20260901213610 95 40 4.0 12.0 0.00 0.00 0.00 48 1012.1
20260901213041 95 36 7.0 12.0 0.00 0.00 0.00 49 1012.1
20260901212553 95 100 1.0 12.0 0.00 0.00 0.00 50 1012.1
20260901211616 95 91 3.0 9.0 0.00 0.00 0.00 51 1012.1
20260901211128 95 61 4.0 13.0 0.00 0.00 0.00 51 1012.1
20260901210633 95 108 6.0 13.0 0.00 0.00 0.00 51 1012.2
20260901210101 95 69 7.0 14.0 0.00 0.00 0.00 51 1012.2
20260901205615 95 80 4.0 13.0 0.00 0.00 0.00 52 1012.2
20260901205118 95 93 8.0 12.0 0.00 0.00 0.00 51 1012.3
20260901204548 95 65 8.0 12.0 0.00 0.00 0.00 50 1012.3
20260901204053 96 67 7.0 14.0 0.00 0.00 0.00 48 1012.4
20260901203123 98 38 11.0 16.0 0.00 0.00 0.00 48 1012.5
20260901202626 97 81 10.0 17.0 0.00 0.00 0.00 50 1012.6
20260901202137 96 86 8.0 17.0 0.00 0.00 0.00 51 1012.6
20260901201559 97 90 8.0 14.0 0.00 0.00 0.00 50 1012.7
20260901201126 96 355 3.0 14.0 0.00 0.00 0.00 51 1012.8
20260901200636 96 68 7.0 15.0 0.00 0.00 0.00 51 1012.9
20260901200100 95 80 6.0 13.0 0.00 0.00 0.00 53 1013.0
20260901195610 95 90 8.0 15.0 0.00 0.00 0.00 52 1013.0
20260901195158 96 84 6.0 13.0 0.00 0.00 0.00 52 1012.9
20260901194600 95 176 4.0 9.0 0.00 0.00 0.00 52 1013.0
20260901193637 96 314 2.0 9.0 0.00 0.00 0.00 53 1013.0
20260901193048 96 109 1.0 9.0 0.00 0.00 0.00 53 1013.0
20260901192552 95 69 4.0 8.0 0.00 0.00 0.00 54 1013.1
20260901191622 94 26 5.0 9.0 0.00 0.00 0.00 55 1013.3
20260901191127 94 35 3.0 10.0 0.00 0.00 0.00 56 1013.3
20260901190128 94 355 3.0 7.0 0.00 0.00 0.00 56 1013.4
20260901185543 95 55 3.0 8.0 0.00 0.00 0.00 56 1013.4
20260901185155 94 339 2.0 9.0 0.00 0.00 0.00 56 1013.5
20260901184551 94 74 2.0 9.0 0.00 0.00 0.00 57 1013.6
20260901184104 94 351 2.0 7.0 0.00 0.00 0.00 58 1013.6
20260901183106 93 101 3.0 10.0 0.00 0.00 0.00 59 1013.9
20260901182611 93 110 3.0 11.0 0.00 0.00 0.00 59 1014.1
20260901182122 93 74 4.0 13.0 0.00 0.00 0.00 60 1014.2
20260901181553 92 96 5.0 13.0 0.00 0.00 0.00 61 1014.3
20260901181058 93 95 3.0 10.0 0.00 0.00 0.00 61 1014.5
20260901180057 92 83 3.0 11.0 0.00 0.00 0.00 62 1014.7
20260901175608 92 59 6.0 11.0 0.00 0.00 0.00 61 1014.7
20260901174608 92 69 8.0 11.0 0.00 0.00 0.00 60 1014.9
20260901174119 92 77 3.0 7.0 0.00 0.00 0.00 62 1015.0
20260901173624 92 349 2.0 8.0 0.00 0.00 0.00 61 1015.0
20260901173051 91 90 1.0 7.0 0.00 0.00 0.00 62 1015.1
20260901172559 91 107 3.0 11.0 0.00 0.00 0.00 63 1015.1
20260901171628 91 72 1.0 10.0 0.00 0.00 0.00 63 1015.2
20260901171134 92 70 4.0 13.0 0.00 0.00 0.00 62 1015.3
20260901170624 92 67 6.0 13.0 0.00 0.00 0.00 64 1015.4
20260901170044 91 67 5.0 11.0 0.00 0.00 0.00 65 1015.3
20260901165556 91 125 6.0 10.0 0.00 0.00 0.00 66 1015.3
20260901165109 90 136 4.0 11.0 0.00 0.00 0.00 66 1015.4
20260901164653 90 70 7.0 11.0 0.00 0.00 0.00 66 1015.4
20260901164123 90 89 2.0 8.0 0.00 0.00 0.00 69 1015.4
20260901163634 89 27 3.0 6.0 0.00 0.00 0.00 69 1015.4
20260901163052 89 76 1.0 9.0 0.00 0.00 0.00 69 1015.5
20260901162609 89 78 4.0 9.0 0.00 0.00 0.00 68 1015.4
20260901162109 89 59 4.0 6.0 0.00 0.00 0.00 69 1015.4
20260901161541 89 299 2.0 9.0 0.00 0.00 0.00 70 1015.4
20260901161052 89 67 2.0 9.0 0.00 0.00 0.00 69 1015.4
20260901160657 89 294 4.0 10.0 0.00 0.00 0.00 69 1015.5
20260901160104 89 315 6.0 10.0 0.00 0.00 0.00 68 1015.5
20260901155617 89 276 2.0 6.0 0.00 0.00 0.00 71 1015.5
20260901154617 88 27 2.0 6.0 0.00 0.00 0.00 73 1015.6
20260901154101 88 321 4.0 9.0 0.00 0.00 0.00 73 1015.7
20260901153129 87 346 1.0 6.0 0.00 0.00 0.00 75 1015.8
20260901152638 87 299 3.0 8.0 0.00 0.00 0.00 75 1015.8
20260901152128 86 288 3.0 8.0 0.00 0.00 0.00 75 1015.8
20260901151149 86 341 2.0 9.0 0.00 0.00 0.00 77 1015.9
20260901150637 85 319 3.0 9.0 0.00 0.00 0.00 76 1015.8
20260901150041 85 5 3.0 6.0 0.00 0.00 0.00 77 1015.7
20260901145553 85 41 3.0 5.0 0.00 0.00 0.00 79 1015.7
20260901144615 84 29 3.0 5.0 0.00 0.00 0.00 82 1015.7
20260901144125 84 306 2.0 7.0 0.00 0.00 0.00 83 1015.7
20260901143608 84 350 4.0 8.0 0.00 0.00 0.00 83 1015.7
20260901143039 83 342 3.0 8.0 0.00 0.00 0.00 84 1015.7
20260901142544 83 290 3.0 6.0 0.00 0.00 0.00 84 1015.8
20260901141603 83 360 4.0 8.0 0.00 0.00 0.00 86 1015.8
20260901141049 82 317 5.0 8.0 0.00 0.00 0.00 85 1015.9
20260901140110 82 321 3.0 6.0 0.00 0.00 0.00 86 1015.9
20260901135621 82 307 4.0 6.0 0.00 0.00 0.00 86 1016.0
20260901135127 81 346 1.0 5.0 0.00 0.00 0.00 87 1015.9
20260901134558 81 323 3.0 5.0 0.00 0.00 0.00 87 1016.0
20260901134110 81 333 0.0 4.0 0.00 0.00 0.00 87 1016.0
20260901133132 80 338 0.0 4.0 0.00 0.00 0.00 88 1016.1
20260901132644 80 337 3.0 4.0 0.00 0.00 0.00 88 1016.0
20260901132125 79 348 1.0 3.0 0.00 0.00 0.00 89 1015.9
20260901131552 79 348 2.0 4.0 0.00 0.00 0.00 89 1015.8
20260901131058 79 347 2.0 4.0 0.00 0.00 0.00 89 1015.8
20260901130609 78 345 0.0 2.0 0.00 0.00 0.00 89 1015.8
20260901130040 78 284 1.0 2.0 0.00 0.00 0.00 90 1015.6
20260901125645 78 279 0.0 3.0 0.00 0.00 0.00 90 1015.6
20260901125136 78 279 1.0 3.0 0.00 0.00 0.00 90 1015.5
20260901124603 77 275 0.0 1.0 0.00 0.00 0.00 90 1015.4
20260901124108 77 274 0.0 0.0 0.00 0.00 0.00 90 1015.4
20260901123129 77 272 0.0 0.0 0.00 0.00 0.00 89 1015.4
20260901122541 77 271 0.0 0.0 0.00 0.00 0.00 89 1015.2
20260901121546 78 271 0.0 0.0 0.00 0.00 0.00 89 1015.1
20260901121057 78 271 0.0 0.0 0.00 0.00 0.00 89 1015.0
20260901120119 78 269 0.0 0.0 0.00 0.00 0.00 89 1015.0
20260901115632 78 207 0.0 0.0 0.00 0.00 0.00 88 1014.9
20260901115136 78 207 0.0 0.0 0.00 0.00 0.00 88 1014.9
20260901114603 78 207 0.0 0.0 0.00 0.00 0.00 88 1014.9
20260901114116 78 162 0.0 0.0 0.00 0.00 0.00 88 1014.9
20260901113138 78 161 0.0 0.0 0.00 0.00 0.00 88 1014.9
20260901112624 78 161 0.0 0.0 0.00 0.00 0.00 88 1014.8
20260901111633 78 161 0.0 0.0 0.00 0.00 0.00 88 1014.8
20260901111117 79 161 0.0 0.0 0.00 0.00 0.00 88 1014.7
20260901110629 79 161 0.0 0.0 0.00 0.00 0.00 87 1014.7
20260901110044 79 160 0.0 0.0 0.00 0.00 0.00 87 1014.6
20260901105556 79 160 0.0 0.0 0.00 0.00 0.00 87 1014.5
20260901104556 79 159 0.0 0.0 0.00 0.00 0.00 87 1014.6
20260901104108 79 159 0.0 0.0 0.00 0.00 0.00 87 1014.7
20260901103129 79 159 0.0 0.0 0.00 0.00 0.00 87 1014.5
20260901102545 79 159 0.0 0.0 0.00 0.00 0.00 87 1014.5
20260901102130 79 159 0.0 0.0 0.00 0.00 0.00 86 1014.5
20260901101557 79 159 0.0 0.0 0.00 0.00 0.00 86 1014.5
20260901101109 79 159 0.0 0.0 0.00 0.00 0.00 86 1014.4
20260901100111 79 159 0.0 0.0 0.00 0.00 0.00 86 1014.3
20260901095622 79 159 0.0 0.0 0.00 0.00 0.00 86 1014.4
20260901094622 79 159 0.0 0.0 0.00 0.00 0.00 87 1014.3
20260901094126 79 159 0.0 0.0 0.00 0.00 0.00 87 1014.3
20260901093638 79 159 0.0 0.0 0.00 0.00 0.00 87 1014.4
20260901093041 79 159 0.0 0.0 0.00 0.00 0.00 87 1014.3
20260901092553 79 159 0.0 0.0 0.00 0.00 0.00 87 1014.4
20260901091615 79 161 0.0 0.0 0.00 0.00 0.00 86 1014.6
20260901091106 79 161 0.0 0.0 0.00 0.00 0.00 86 1014.6